Location: Arboyeti
(42.1122°N, 44.6017°E)
Time: 05:05:17
(UTC+00:00)

NOSS 3-1 (C) - Pass Details

Date: 19 April 2021
Orbit: 732 x 1476 km, 63.4° (Epoch: 18 April)

Event Time Altitude Azimuth Distance (km) Brightness Sun altitude
Rises 19:47:18 0° 324° (NW) 3,971 7.7 -33.8°
Reaches altitude 10° 19:49:50 10° 325° (NW) 3,106 6.9 -34.0°
Enters shadow 19:57:20 87° 352° (N) 1,332 4.0 -34.5°
